sat.trackr.live / text

‹ back to catalog

STARLINK-1719

NORAD 46331 · 2020-062G

PAYLOAD ACTIVE UNKNOWN

§ Identity

Operator
Country
US
Launch date
2020-09-03
Launch site
AFETR
Launch vehicle
Mass (kg)
RCS (m²)

Purposes: comms

External: N2YO · Heavens-Above · Gunter

§ Orbital elements

Epoch: 2026-05-24T16:29:56.671008Z

Period
91.54 min
Inclination
53.0376°
Eccentricity
0.0007205
Mean motion
15.73161896 rev/d
Perigee alt
345.0 km
Apogee alt
354.7 km
Semi-major
6,728.0 km
B*
7.5823e-4
RAAN
325.2237°
Arg perigee
183.3185°
Mean anomaly
176.7786°
Rev number
31,675

§ Raw data

STARLINK-17191 46331U 20062G   26144.68746147  .00107140  00000+0  75823-3 0  99972 46331  53.0376 325.2237 0007205 183.3185 176.7786 15.73161896316751

JSON: /api/v1/satellites/46331 · /tle

For live sub-satellite position, see the globe view (requires WebGL).

§ Visibility from observer

Set your observer location to see the next 7 days of passes ≥ 10°. The values pass through the URL so the page stays shareable.

No JS? Fill the form by hand. The geolocation button needs JavaScript.